When you browse on this site, cookies collect data to enhance your experience and personalize the content and advertising you see.
Visit our Privacy Policy to learn more. By continuing to use the site, you agree to this use of cookies and data.
  • In Spain
  • List of Countries
  • For 7 days
  • Water Temperature
  • Weather Map
  • Weather Widgets
  • user-avatar
    Login

    Hourly Weather Santalovo

    Today, 24 August, Saturday

    Time Temperature Precipitation Wind Pressure Humidity
    00:00 +14°C° 0 mm 2 mps 749 mmHg 89%
    01:00 +14°C° 0 mm 2 mps 749 mmHg 90%
    02:00 +13°C° 0 mm 2 mps 749 mmHg 90%
    03:00 +13°C° 0 mm 2 mps 749 mmHg 90%
    04:00 +13°C° 0 mm 1 mps 749 mmHg 90%
    05:00 +13°C° 0 mm 1 mps 748 mmHg 91%
    06:00 +15°C° 0 mm 1 mps 749 mmHg 85%
    07:00 +16°C° 0 mm 1 mps 749 mmHg 79%
    08:00 +19°C° 0 mm 1 mps 749 mmHg 73%
    09:00 +20°C° 0 mm 1 mps 748 mmHg 68%
    10:00 +22°C° 0 mm 1 mps 748 mmHg 62%
    11:00 +21°C° 0 mm 0 mps 748 mmHg 56%
    12:00 +23°C° 0 mm 1 mps 748 mmHg 54%
    13:00 +24°C° 0 mm 1 mps 748 mmHg 52%
    14:00 +24°C° 0 mm 2 mps 747 mmHg 50%
    15:00 +24°C° 0 mm 2 mps 747 mmHg 54%
    16:00 +23°C° 0 mm 1 mps 747 mmHg 58%
    17:00 +23°C° 0 mm 1 mps 746 mmHg 63%
    18:00 +21°C° 0 mm 1 mps 747 mmHg 66%
    19:00 +19°C° 0 mm 1 mps 747 mmHg 70%
    20:00 +16°C° 0 mm 1 mps 747 mmHg 74%
    21:00 +16°C° 0 mm 1 mps 747 mmHg 78%
    22:00 +15°C° 0 mm 2 mps 746 mmHg 81%
    23:00 +15°C° 0 mm 2 mps 746 mmHg 85%

    Tomorrow, 25 August, Sunday

    Time Temperature Precipitation Wind Pressure Humidity
    00:00 +15°C° 0 mm 2 mps 746 mmHg 87%
    01:00 +14°C° 0 mm 2 mps 746 mmHg 90%
    02:00 +14°C° 0 mm 2 mps 747 mmHg 93%
    03:00 +14°C° 0 mm 2 mps 746 mmHg 94%
    04:00 +14°C° 0 mm 2 mps 746 mmHg 95%
    05:00 +14°C° 0 mm 2 mps 746 mmHg 95%
    06:00 +14°C° 0 mm 3 mps 747 mmHg 89%
    07:00 +16°C° 0 mm 3 mps 747 mmHg 83%
    08:00 +18°C° 0 mm 3 mps 747 mmHg 77%
    09:00 +19°C° 0 mm 3 mps 747 mmHg 71%
    10:00 +20°C° 0 mm 3 mps 748 mmHg 65%
    11:00 +21°C° 0 mm 3 mps 748 mmHg 59%
    12:00 +21°C° 0 mm 3 mps 748 mmHg 58%
    13:00 +22°C° 0 mm 4 mps 748 mmHg 58%
    14:00 +22°C° 0 mm 4 mps 748 mmHg 57%
    15:00 +21°C° 0 mm 3 mps 748 mmHg 61%
    16:00 +21°C° 0 mm 3 mps 748 mmHg 65%
    17:00 +20°C° 0 mm 3 mps 748 mmHg 69%
    18:00 +19°C° 0 mm 2 mps 748 mmHg 72%
    19:00 +17°C° 0 mm 2 mps 748 mmHg 75%
    20:00 +15°C° 0 mm 2 mps 749 mmHg 79%
    21:00 +15°C° 0 mm 2 mps 749 mmHg 81%
    22:00 +14°C° 0 mm 2 mps 749 mmHg 83%
    23:00 +14°C° 0 mm 1 mps 749 mmHg 86%

    Day after tomorrow, 26 August, Monday

    Time Temperature Precipitation Wind Pressure Humidity
    00:00 +13°C° 0 mm 1 mps 750 mmHg 87%
    01:00 +13°C° 0 mm 1 mps 750 mmHg 88%
    02:00 +12°C° 0 mm 1 mps 750 mmHg 89%
    03:00 +12°C° 0 mm 1 mps 750 mmHg 89%
    04:00 +12°C° 0 mm 1 mps 750 mmHg 90%
    05:00 +12°C° 0 mm 1 mps 750 mmHg 90%
    06:00 +14°C° 0 mm 1 mps 750 mmHg 84%
    07:00 +15°C° 0 mm 1 mps 750 mmHg 77%
    08:00 +18°C° 0 mm 1 mps 750 mmHg 71%
    09:00 +19°C° 0 mm 1 mps 750 mmHg 67%
    10:00 +21°C° 0 mm 1 mps 750 mmHg 62%
    11:00 +22°C° 0 mm 1 mps 750 mmHg 57%
    12:00 +22°C° 0 mm 1 mps 750 mmHg 55%
    13:00 +22°C° 0 mm 1 mps 749 mmHg 54%
    14:00 +23°C° 0 mm 1 mps 749 mmHg 52%
    15:00 +22°C° 0 mm 1 mps 749 mmHg 55%
    16:00 +22°C° 0 mm 1 mps 748 mmHg 59%
    17:00 +22°C° 0 mm 1 mps 748 mmHg 63%
    18:00 +20°C° 0 mm 1 mps 748 mmHg 65%
    19:00 +18°C° 0 mm 1 mps 747 mmHg 68%
    20:00 +16°C° 0 mm 1 mps 747 mmHg 71%
    21:00 +15°C° 0 mm 1 mps 747 mmHg 71%
    22:00 +15°C° 0 mm 2 mps 747 mmHg 72%
    23:00 +15°C° 0 mm 2 mps 747 mmHg 73%

    27 August, Tuesday

    Time Temperature Precipitation Wind Pressure Humidity
    00:00 +14°C° 0 mm 2 mps 747 mmHg 75%
    01:00 +14°C° 0 mm 2 mps 746 mmHg 78%
    02:00 +13°C° 0 mm 2 mps 746 mmHg 80%
    03:00 +13°C° 0 mm 2 mps 746 mmHg 82%
    04:00 +13°C° 0 mm 2 mps 745 mmHg 84%
    05:00 +12°C° 0 mm 3 mps 745 mmHg 86%
    06:00 +13°C° 0 mm 3 mps 745 mmHg 84%
    07:00 +16°C° 0 mm 3 mps 745 mmHg 81%
    08:00 +17°C° 0 mm 4 mps 744 mmHg 78%
    09:00 +19°C° 0 mm 4 mps 744 mmHg 73%
    10:00 +20°C° 0 mm 4 mps 744 mmHg 68%
    11:00 +22°C° 0 mm 5 mps 744 mmHg 63%
    12:00 +21°C° 0.2 mm 5 mps 743 mmHg 66%
    13:00 +21°C° 0.2 mm 5 mps 743 mmHg 68%
    14:00 +21°C° 0.2 mm 6 mps 742 mmHg 71%
    15:00 +21°C° 0.2 mm 5 mps 742 mmHg 73%
    16:00 +20°C° 0.2 mm 5 mps 742 mmHg 76%
    17:00 +19°C° 0.2 mm 5 mps 742 mmHg 79%
    18:00 +17°C° 0 mm 5 mps 742 mmHg 79%
    19:00 +15°C° 0 mm 4 mps 742 mmHg 80%
    20:00 +14°C° 0 mm 4 mps 742 mmHg 81%
    21:00 +13°C° 0 mm 4 mps 743 mmHg 82%
    22:00 +12°C° 0 mm 4 mps 744 mmHg 83%
    23:00 +12°C° 0 mm 5 mps 744 mmHg 84%

    28 August, Wednesday

    Time Temperature Precipitation Wind Pressure Humidity
    00:00 +11°C° 0 mm 4 mps 744 mmHg 85%
    01:00 +8°C° 0 mm 4 mps 745 mmHg 86%
    02:00 +7°C° 0 mm 4 mps 745 mmHg 87%
    03:00 +7°C° 0 mm 3 mps 745 mmHg 86%
    04:00 +7°C° 0 mm 3 mps 745 mmHg 86%
    05:00 +5°C° 0 mm 3 mps 746 mmHg 85%
    06:00 +7°C° 0 mm 3 mps 746 mmHg 80%
    07:00 +8°C° 0 mm 4 mps 746 mmHg 74%
    08:00 +9°C° 0 mm 5 mps 746 mmHg 69%
    09:00 +10°C° 0 mm 5 mps 746 mmHg 65%
    10:00 +12°C° 0 mm 5 mps 746 mmHg 61%
    11:00 +13°C° 0 mm 5 mps 746 mmHg 57%
    12:00 +14°C° 0 mm 6 mps 746 mmHg 55%
    13:00 +14°C° 0 mm 6 mps 746 mmHg 53%
    14:00 +15°C° 0 mm 6 mps 746 mmHg 51%
    15:00 +14°C° 0 mm 5 mps 746 mmHg 54%
    16:00 +14°C° 0 mm 4 mps 746 mmHg 58%
    17:00 +13°C° 0 mm 3 mps 746 mmHg 62%
    18:00 +12°C° 0 mm 3 mps 746 mmHg 65%
    19:00 +10°C° 0 mm 3 mps 746 mmHg 68%
    20:00 +8°C° 0 mm 3 mps 746 mmHg 71%
    21:00 +8°C° 0 mm 3 mps 747 mmHg 72%
    22:00 +7°C° 0 mm 2 mps 747 mmHg 74%
    23:00 +6°C° 0 mm 2 mps 747 mmHg 75%

    29 August, Thursday

    Time Temperature Precipitation Wind Pressure Humidity
    00:00 +6°C° 0 mm 2 mps 747 mmHg 77%
    01:00 +6°C° 0 mm 2 mps 747 mmHg 78%
    02:00 +5°C° 0 mm 2 mps 747 mmHg 80%
    03:00 +5°C° 0 mm 2 mps 747 mmHg 81%
    04:00 +5°C° 0 mm 2 mps 748 mmHg 83%
    05:00 +4°C° 0 mm 2 mps 748 mmHg 84%
    06:00 +5°C° 0 mm 3 mps 748 mmHg 79%
    07:00 +8°C° 0 mm 3 mps 748 mmHg 73%
    08:00 +10°C° 0 mm 3 mps 748 mmHg 68%
    09:00 +11°C° 0 mm 4 mps 748 mmHg 63%
    10:00 +12°C° 0 mm 4 mps 747 mmHg 59%
    11:00 +14°C° 0 mm 4 mps 747 mmHg 54%
    12:00 +14°C° 0 mm 4 mps 747 mmHg 53%
    13:00 +15°C° 0 mm 4 mps 747 mmHg 52%
    14:00 +15°C° 0 mm 4 mps 746 mmHg 51%
    15:00 +16°C° 0 mm 3 mps 746 mmHg 55%
    16:00 +16°C° 0 mm 3 mps 746 mmHg 60%
    17:00 +16°C° 0 mm 2 mps 746 mmHg 65%
    18:00 +13°C° 0 mm 3 mps 746 mmHg 64%
    19:00 +12°C° 0 mm 3 mps 746 mmHg 64%
    20:00 +11°C° 0 mm 4 mps 746 mmHg 64%
    21:00 +10°C° 0 mm 3 mps 746 mmHg 69%
    22:00 +8°C° 0 mm 3 mps 747 mmHg 74%
    23:00 +7°C° 0 mm 2 mps 747 mmHg 79%
    Show more